Location: Elk Horn Observatory
(36.6768°N, 80.8309°W)
Time: 05:47:24
(UTC-05:00)

Envisat - Visible Passes

Search period start: 24 January 2019 00:00
Search period end: 03 February 2019 00:00
Orbit: 764 x 766 km, 98.2° (Epoch: 24 January)

Date Brightness Start Highest point End Pass type
(mag) Time Alt. Az. Time Alt. Az. Time Alt. Az.
24 Jan 3.0 18:53:13 10° SSE 18:58:12 60° ENE 19:03:12 10° N visible
24 Jan 5.9 20:35:06 10° WSW 20:37:34 14° W 20:40:02 10° WNW visible
25 Jan 3.9 18:17:31 10° SE 18:21:41 26° ENE 18:25:51 10° NNE visible
25 Jan 4.7 19:56:03 10° SSW 20:00:32 32° W 20:05:03 10° NW visible
26 Jan 3.1 19:18:38 10° S 19:23:41 76° WSW 19:28:47 10° NNW visible
27 Jan 3.2 18:42:13 10° SE 18:47:02 46° ENE 18:51:53 10° N visible
27 Jan 5.6 20:22:55 10° SW 20:26:15 18° W 20:29:37 10° NW visible
28 Jan 5.9 06:54:25 10° NE 06:58:02 19° E 07:01:38 10° SE visible
28 Jan 4.2 18:06:52 10° ESE 18:10:35 21° ENE 18:14:18 10° NNE visible
28 Jan 4.3 19:44:31 10° SSW 19:49:17 41° W 19:54:05 10° NNW visible
29 Jan 2.9 19:07:25 10° SSE 19:12:29 85° ENE 19:17:36 10° N visible
30 Jan 3.5 18:31:18 10° SE 18:35:54 36° ENE 18:40:31 10° N visible
30 Jan 5.3 20:11:02 10° SW 20:14:58 23° W 20:18:55 10° NW visible
31 Jan 6.1 06:43:53 10° ENE 06:46:44 15° E 06:49:35 10° SE visible
31 Jan 3.8 19:33:06 10° S 19:38:02 53° W 19:43:01 10° NNW visible
01 Feb 2.9 18:56:18 10° SSE 19:01:19 66° ENE 19:06:21 10° N visible
01 Feb 6.1 20:38:48 10° WSW 20:40:44 12° W 20:42:42 10° WNW visible
02 Feb 3.8 18:20:28 10° SE 18:24:46 29° ENE 18:29:06 10° N visible
02 Feb 4.9 19:59:19 10° SSW 20:03:41 29° W 20:08:05 10° NW visible
